sat.trackr.live / text

‹ back to catalog

STARLINK-34104

NORAD 64102 · 2025-110G

PAYLOAD ACTIVE UNKNOWN

§ Identity

Operator
Country
US
Launch date
2025-05-23
Launch site
AFWTR
Launch vehicle
Mass (kg)
RCS (m²)

Purposes: comms

External: N2YO · Heavens-Above · Gunter

§ Orbital elements

Epoch: 2026-09-20T10:23:34.858176Z

Period
93.85 min
Inclination
53.1576°
Eccentricity
0.0001083
Mean motion
15.34374088 rev/d
Perigee alt
462.0 km
Apogee alt
463.5 km
Semi-major
6,840.9 km
B*
6.9484e-4
RAAN
198.2996°
Arg perigee
64.0990°
Mean anomaly
296.0125°
Rev number
7,575

§ Raw data

STARLINK-341041 64102U 25110G   26263.43304234  .00023153  00000+0  69484-3 0  99912 64102  53.1576 198.2996 0001083  64.0990 296.0125 15.34374088 75758

JSON: /api/v1/satellites/64102 · /tle

For live sub-satellite position, see the globe view (requires WebGL).

§ Visibility from observer

Set your observer location to see the next 7 days of passes ≥ 10°. The values pass through the URL so the page stays shareable.

No JS? Fill the form by hand. The geolocation button needs JavaScript.